Location: Central Falls
(41.8900°N, 71.3929°W)
Time: 03:40:36
(UTC+00:00)

Courier 1B Rocket - Pass Details

Date: 03 December 2023
Orbit: 920 x 1202 km, 28.2° (Epoch: 29 February)

Event Time Altitude Azimuth Distance (km) Brightness Sun altitude
Rises 21:36:56 0° 253° (WSW) 3,549 10.4 -4.5°
Reaches altitude 10° 21:40:38 10° 231° (SW) 2,603 8.9 -5.1°
Maximum altitude 21:44:08 16° 197° (SSW) 2,236 7.5 -5.7°
Drops below altitude 10° 21:47:40 10° 162° (SSE) 2,632 7.4 -6.3°
Sets 21:51:27 0° 141° (SE) 3,612 7.8 -6.9°
